contact:dominique.lefevre@mio.osupytheas.fr, maurice.libes@osupytheas.fr, didier.mallarino@osupytheas.fr
Project:EMSO http://www.emso-fr.org/EMSO-France
Depth: 2436.0 m
Title:EMSO Ligure Ouest : Data MII capteur AQUADOPP
Date,Latitude,Longitude,X_East,Y_North,Z_Up,Amplitude_X,Amplitude_Y,Amplitude_Z,Batterie,SoundSpeed,Heading,Pitch,Roll,Pressure,TIS,Speed,Direction
, degrees North, degrees East, m.s-1, m.s-1,m.s-1, 1, 1, 1, Volt, m.s-1, degree, degree, degree, dbar, degree_C, m.s-1, degree
2020-05-28T00:04:03,42.805,6.029,-0.011,0.018,-0.029,100.0,102.0,100.0,13.4,1505.3,324.0,-0.8,1.8,2470.448,13.32,0.021,328.6
2020-05-28T00:07:03,42.805,6.029,-0.023,0.008,-0.061,101.0,102.0,100.0,13.4,1505.3,326.5,-0.8,1.8,2470.399,13.33,0.024,289.2
2020-05-28T00:10:03,42.805,6.029,0.018,0.004,-0.009,103.0,103.0,100.0,13.3,1505.3,324.3,-0.7,1.8,2470.407,13.33,0.018,77.5
2020-05-28T00:13:03,42.805,6.029,0.036,0.006,0.0,100.0,102.0,100.0,13.4,1505.3,326.0,-0.7,1.8,2470.408,13.33,0.036,80.5
2020-05-28T00:16:03,42.805,6.029,-0.014,0.019,-0.028,101.0,102.0,100.0,13.4,1505.4,325.3,-0.7,1.9,2470.414,13.34,0.023,323.6
2020-05-28T00:19:03,42.805,6.029,0.041,0.03,0.01,101.0,103.0,99.0,13.3,1505.4,325.0,-0.7,1.8,2470.404,13.34,0.05,53.8
2020-05-28T00:22:03,42.805,6.029,0.026,0.014,-0.006,100.0,104.0,99.0,13.4,1505.4,323.9,-0.7,1.8,2470.388,13.34,0.029,61.7
2020-05-28T00:25:03,42.805,6.029,0.046,0.022,0.032,101.0,104.0,101.0,13.3,1505.4,327.4,-0.7,1.8,2470.42,13.34,0.05,64.4
2020-05-28T00:28:03,42.805,6.029,0.012,0.026,0.016,100.0,103.0,100.0,13.3,1505.4,324.3,-0.7,1.8,2470.4,13.34,0.028,24.8
2020-05-28T00:31:03,42.805,6.029,0.057,0.005,0.0,100.0,105.0,99.0,13.3,1505.4,328.5,-0.7,1.8,2470.439,13.34,0.057,85.0
2020-05-28T00:34:03,42.805,6.029,0.033,0.024,0.023,100.0,106.0,100.0,13.3,1505.4,326.1,-0.7,1.9,2470.357,13.34,0.04,54.0
2020-05-28T00:37:03,42.805,6.029,0.042,0.006,0.028,98.0,103.0,102.0,13.3,1505.4,326.5,-0.7,1.8,2470.375,13.34,0.042,81.9
2020-05-28T00:40:03,42.805,6.029,0.001,0.005,-0.013,99.0,104.0,100.0,13.4,1505.4,324.4,-0.7,1.8,2470.378,13.34,0.005,11.3
2020-05-28T00:43:03,42.805,6.029,0.055,0.015,0.039,99.0,104.0,101.0,13.4,1505.4,326.8,-0.7,1.8,2470.397,13.34,0.057,74.7
2020-05-28T00:46:03,42.805,6.029,0.03,0.006,-0.012,98.0,104.0,100.0,13.4,1505.4,327.1,-0.7,1.8,2470.384,13.34,0.03,78.7
2020-05-28T00:49:03,42.805,6.029,0.028,-0.004,-0.013,100.0,104.0,99.0,13.3,1505.4,327.3,-0.7,1.9,2470.317,13.34,0.028,98.1
2020-05-28T00:52:03,42.805,6.029,0.019,0.023,0.011,105.0,103.0,99.0,13.3,1505.4,326.5,-0.7,1.8,2470.387,13.34,0.029,39.6
2020-05-28T00:55:03,42.805,6.029,0.039,0.014,0.026,102.0,104.0,98.0,13.4,1505.4,328.6,-0.7,1.9,2470.347,13.34,0.041,70.3
2020-05-28T00:58:03,42.805,6.029,0.016,0.005,0.011,99.0,106.0,100.0,13.4,1505.4,325.4,-0.7,1.8,2470.383,13.34,0.016,72.6
2020-05-28T01:04:03,42.805,6.029,0.057,-0.008,0.0,102.0,107.0,100.0,13.4,1505.3,325.7,-0.7,1.8,2470.413,13.32,0.057,98.0
2020-05-28T01:07:03,42.805,6.029,0.039,0.01,0.012,101.0,106.0,99.0,13.4,1505.3,324.8,-0.7,1.8,2470.42,13.33,0.04,75.6
2020-05-28T01:10:03,42.805,6.029,0.033,0.004,0.012,100.0,105.0,100.0,13.3,1505.3,326.3,-0.7,1.8,2470.392,13.33,0.033,83.1
2020-05-28T01:13:03,42.805,6.029,0.045,0.009,0.028,101.0,106.0,100.0,13.4,1505.4,324.8,-0.7,1.8,2470.382,13.34,0.045,78.7
2020-05-28T01:16:03,42.805,6.029,0.024,0.008,0.007,101.0,105.0,100.0,13.3,1505.4,325.1,-0.6,1.8,2470.363,13.34,0.025,71.6
2020-05-28T01:19:03,42.805,6.029,-0.004,0.007,-0.033,102.0,101.0,100.0,13.3,1505.4,326.6,-0.7,1.8,2470.347,13.34,0.008,330.3
2020-05-28T01:22:03,42.805,6.029,0.009,0.02,0.005,101.0,105.0,100.0,13.4,1505.4,326.4,-0.7,1.8,2470.337,13.34,0.021,24.2
2020-05-28T01:25:03,42.805,6.029,-0.007,0.024,-0.025,101.0,105.0,100.0,13.3,1505.4,327.7,-0.7,1.8,2470.396,13.34,0.025,343.7
2020-05-28T01:28:03,42.805,6.029,0.009,0.006,-0.006,102.0,104.0,100.0,13.4,1505.4,326.7,-0.7,1.8,2470.385,13.34,0.01,56.3
2020-05-28T01:31:03,42.805,6.029,0.042,0.014,0.007,102.0,104.0,100.0,13.4,1505.4,324.9,-0.7,1.9,2470.376,13.34,0.044,71.6
2020-05-28T01:34:03,42.805,6.029,0.005,0.006,0.005,101.0,104.0,99.0,13.3,1505.4,327.1,-0.7,1.8,2470.407,13.34,0.007,39.8
2020-05-28T01:37:03,42.805,6.029,-0.015,0.008,-0.029,100.0,110.0,99.0,13.3,1505.4,326.5,-0.7,1.9,2470.367,13.34,0.017,298.1
2020-05-28T01:40:03,42.805,6.029,0.002,0.003,-0.04,101.0,103.0,99.0,13.4,1505.4,326.2,-0.7,1.8,2470.322,13.34,0.003,33.7
2020-05-28T01:43:03,42.805,6.029,0.007,0.021,-0.006,102.0,105.0,100.0,13.3,1505.4,327.3,-0.7,1.8,2470.407,13.34,0.022,18.4
2020-05-28T01:46:03,42.805,6.029,0.042,0.012,-0.004,102.0,104.0,100.0,13.4,1505.4,325.6,-0.7,1.8,2470.344,13.34,0.043,74.1
2020-05-28T01:49:03,42.805,6.029,0.046,0.019,-0.016,103.0,105.0,99.0,13.4,1505.4,328.7,-0.7,1.8,2470.359,13.34,0.049,67.6
2020-05-28T01:55:02,42.805,6.029,-0.013,0.011,-0.024,102.0,103.0,100.0,13.4,1505.3,325.2,-0.8,1.8,2470.392,13.33,0.017,310.2
2020-05-28T01:58:03,42.805,6.029,0.005,0.004,-0.019,103.0,104.0,99.0,13.4,1505.3,324.6,-0.7,1.8,2470.386,13.33,0.006,51.3
2020-05-28T02:04:03,42.805,6.029,0.017,0.008,-0.012,100.0,104.0,101.0,13.3,1505.3,325.3,-0.7,1.8,2470.392,13.32,0.018,64.8
2020-05-28T02:07:03,42.805,6.029,0.037,0.026,0.013,102.0,102.0,98.0,13.4,1505.3,324.8,-0.7,1.9,2470.39,13.33,0.045,54.9
2020-05-28T02:10:03,42.805,6.029,0.042,0.027,0.028,98.0,103.0,100.0,13.4,1505.3,324.7,-0.7,1.8,2470.356,13.33,0.049,57.3
2020-05-28T02:13:03,42.805,6.029,0.003,0.025,-0.003,101.0,102.0,100.0,13.4,1505.3,324.7,-0.7,1.8,2470.358,13.33,0.025,6.8
2020-05-28T02:16:03,42.805,6.029,0.015,-0.012,-0.017,102.0,103.0,101.0,13.4,1505.4,325.3,-0.7,1.9,2470.348,13.34,0.019,128.7
2020-05-28T02:19:03,42.805,6.029,0.021,0.013,-0.03,102.0,103.0,98.0,13.4,1505.4,326.3,-0.7,1.8,2470.343,13.34,0.024,58.2
2020-05-28T02:22:03,42.805,6.029,-0.008,0.023,-0.014,99.0,102.0,101.0,13.3,1505.4,324.0,-0.7,1.9,2470.342,13.34,0.024,340.8
2020-05-28T02:25:03,42.805,6.029,0.026,0.016,-0.007,101.0,103.0,99.0,13.4,1505.4,327.1,-0.7,1.8,2470.371,13.34,0.03,58.4
2020-05-28T02:28:03,42.805,6.029,0.015,0.005,0.002,100.0,106.0,99.0,13.3,1505.4,327.5,-0.7,1.9,2470.365,13.34,0.015,71.6
2020-05-28T02:31:03,42.805,6.029,0.026,0.021,0.012,98.0,104.0,100.0,13.4,1505.4,325.8,-0.7,1.8,2470.348,13.34,0.033,51.1
2020-05-28T02:34:03,42.805,6.029,-0.012,0.028,0.02,99.0,103.0,100.0,13.4,1505.4,326.6,-0.7,1.8,2470.341,13.34,0.03,336.8
2020-05-28T02:37:03,42.805,6.029,-0.028,0.01,-0.043,99.0,102.0,99.0,13.4,1505.4,326.8,-0.7,1.8,2470.345,13.34,0.029,289.6
2020-05-28T02:40:03,42.805,6.029,-0.011,0.026,-0.032,99.0,103.0,100.0,13.3,1505.4,323.4,-0.7,1.8,2470.338,13.34,0.028,337.1
2020-05-28T02:43:03,42.805,6.029,0.006,0.006,-0.003,99.0,102.0,103.0,13.4,1505.4,324.5,-0.7,1.8,2470.295,13.34,0.008,45.0
2020-05-28T02:46:03,42.805,6.029,-0.005,0.015,-0.003,102.0,102.0,99.0,13.4,1505.4,325.1,-0.7,1.8,2470.322,13.34,0.015,341.6
2020-05-28T02:49:03,42.805,6.029,0.017,0.013,-0.01,100.0,103.0,100.0,13.3,1505.4,324.0,-0.7,1.9,2470.349,13.34,0.021,52.6
2020-05-28T02:52:03,42.805,6.029,0.039,0.015,0.006,100.0,103.0,100.0,13.4,1505.4,324.5,-0.7,1.8,2470.334,13.34,0.041,69.0
2020-05-28T02:55:03,42.805,6.029,0.044,-0.005,0.023,102.0,102.0,100.0,13.4,1505.4,328.0,-0.7,1.8,2470.334,13.34,0.044,96.5
2020-05-28T02:58:03,42.805,6.029,0.026,0.018,0.008,100.0,105.0,100.0,13.3,1505.4,325.7,-0.7,1.8,2470.36,13.34,0.031,55.3
2020-05-28T03:04:03,42.805,6.029,0.019,0.0,-0.006,102.0,103.0,99.0,13.4,1505.3,323.4,-0.7,1.8,2470.38,13.32,0.019,90.0
2020-05-28T03:07:02,42.805,6.029,0.031,0.015,0.0,102.0,103.0,99.0,13.4,1505.3,327.9,-0.7,1.8,2470.33,13.33,0.034,64.2
2020-05-28T03:10:03,42.805,6.029,0.017,0.026,0.028,102.0,103.0,100.0,13.4,1505.4,325.5,-0.7,1.8,2470.335,13.34,0.031,33.2
2020-05-28T03:13:03,42.805,6.029,-0.011,-0.006,-0.05,100.0,103.0,100.0,13.3,1505.4,326.7,-0.7,1.8,2470.302,13.34,0.012,241.4
2020-05-28T03:16:03,42.805,6.029,-0.004,0.01,-0.018,102.0,101.0,101.0,13.3,1505.4,325.1,-0.7,1.8,2470.328,13.34,0.01,338.2
2020-05-28T03:19:03,42.805,6.029,-0.025,0.006,-0.055,101.0,102.0,99.0,13.3,1505.4,324.3,-0.7,1.9,2470.351,13.34,0.025,283.5
2020-05-28T03:22:03,42.805,6.029,-0.009,-0.007,-0.048,102.0,103.0,101.0,13.4,1505.4,326.2,-0.6,1.8,2470.329,13.34,0.011,232.1
2020-05-28T03:25:03,42.805,6.029,-0.003,0.006,-0.053,99.0,102.0,101.0,13.4,1505.4,327.0,-0.7,1.8,2470.262,13.34,0.006,333.4
2020-05-28T03:28:03,42.805,6.029,-0.005,-0.001,-0.051,101.0,103.0,100.0,13.4,1505.4,324.6,-0.7,1.9,2470.321,13.34,0.005,258.7
2020-05-28T03:31:03,42.805,6.029,-0.005,0.011,-0.033,102.0,104.0,99.0,13.4,1505.4,324.6,-0.7,1.8,2470.321,13.34,0.012,335.6
2020-05-28T03:34:03,42.805,6.029,-0.031,-0.012,-0.034,101.0,104.0,99.0,13.3,1505.4,325.1,-0.7,1.8,2470.33,13.35,0.033,248.8
2020-05-28T03:37:03,42.805,6.029,-0.021,0.001,-0.031,99.0,103.0,101.0,13.4,1505.4,328.2,-0.7,1.9,2470.306,13.35,0.021,272.7
2020-05-28T03:40:03,42.805,6.029,-0.031,0.002,-0.02,101.0,104.0,100.0,13.4,1505.4,326.5,-0.7,1.8,2470.332,13.35,0.031,273.7
2020-05-28T03:43:03,42.805,6.029,-0.012,-0.004,-0.045,99.0,105.0,101.0,13.4,1505.4,327.2,-0.7,1.8,2470.355,13.34,0.012,251.6
2020-05-28T03:46:03,42.805,6.029,-0.003,0.003,-0.028,102.0,102.0,100.0,13.4,1505.4,326.4,-0.7,1.8,2470.307,13.35,0.004,315.0
2020-05-28T03:49:03,42.805,6.029,0.022,-0.008,-0.048,99.0,103.0,99.0,13.3,1505.4,327.2,-0.7,1.8,2470.307,13.34,0.023,110.0
2020-05-28T03:52:03,42.805,6.029,-0.006,0.012,-0.036,100.0,103.0,99.0,13.4,1505.4,323.7,-0.7,1.8,2470.347,13.34,0.013,333.4
2020-05-28T03:55:03,42.805,6.029,0.01,0.011,-0.025,102.0,103.0,99.0,13.4,1505.4,323.8,-0.7,1.8,2470.321,13.35,0.014,42.3
2020-05-28T03:58:03,42.805,6.029,-0.025,0.01,-0.022,102.0,102.0,100.0,13.3,1505.4,323.5,-0.7,1.9,2470.277,13.34,0.026,291.8
2020-05-28T04:04:03,42.805,6.029,0.019,0.015,-0.021,100.0,104.0,99.0,13.4,1505.3,324.7,-0.7,1.9,2470.331,13.33,0.024,51.7
2020-05-28T04:07:03,42.805,6.029,-0.017,0.008,-0.031,101.0,105.0,99.0,13.3,1505.3,323.6,-0.7,1.8,2470.337,13.33,0.018,295.2
2020-05-28T04:10:03,42.805,6.029,-0.012,0.006,-0.021,101.0,104.0,99.0,13.4,1505.3,325.9,-0.7,1.9,2470.329,13.33,0.013,296.6
2020-05-28T04:13:03,42.805,6.029,-0.017,0.007,-0.023,102.0,104.0,100.0,13.3,1505.4,326.3,-0.7,1.8,2470.273,13.34,0.018,292.4
2020-05-28T04:16:03,42.805,6.029,0.006,0.009,-0.012,101.0,104.0,100.0,13.4,1505.4,325.4,-0.7,1.8,2470.331,13.34,0.01,33.7
2020-05-28T04:19:03,42.805,6.029,0.011,0.007,0.0,102.0,104.0,99.0,13.3,1505.4,326.0,-0.7,1.8,2470.289,13.34,0.013,57.5
2020-05-28T04:22:03,42.805,6.029,0.002,0.007,-0.05,101.0,103.0,100.0,13.3,1505.4,326.7,-0.7,1.9,2470.261,13.34,0.007,15.9
2020-05-28T04:25:03,42.805,6.029,0.007,0.023,0.001,102.0,104.0,100.0,13.4,1505.4,328.2,-0.7,1.9,2470.311,13.34,0.024,16.9
2020-05-28T04:28:03,42.805,6.029,-0.025,0.031,-0.036,101.0,105.0,99.0,13.4,1505.4,326.6,-0.7,1.8,2470.343,13.34,0.039,321.1
2020-05-28T04:31:03,42.805,6.029,-0.013,0.015,-0.019,101.0,103.0,100.0,13.4,1505.4,323.5,-0.7,1.8,2470.292,13.34,0.019,319.1
2020-05-28T04:34:03,42.805,6.029,-0.013,0.014,-0.004,102.0,104.0,100.0,13.4,1505.4,328.1,-0.7,1.8,2470.338,13.34,0.019,317.1
2020-05-28T04:37:03,42.805,6.029,-0.02,0.008,-0.041,101.0,104.0,98.0,13.4,1505.4,324.6,-0.7,1.8,2470.277,13.34,0.021,291.8
2020-05-28T04:40:03,42.805,6.029,0.004,-0.01,-0.064,101.0,103.0,100.0,13.4,1505.4,322.8,-0.7,1.8,2470.278,13.34,0.01,158.2
2020-05-28T04:43:03,42.805,6.029,-0.04,-0.003,-0.049,100.0,103.0,100.0,13.3,1505.4,326.5,-0.7,1.8,2470.288,13.34,0.04,265.7
2020-05-28T04:46:03,42.805,6.029,0.005,0.006,-0.046,99.0,104.0,100.0,13.4,1505.4,324.2,-0.7,1.8,2470.296,13.34,0.007,39.8
2020-05-28T04:49:03,42.805,6.029,-0.022,0.013,-0.012,103.0,103.0,101.0,13.3,1505.4,326.9,-0.7,1.8,2470.249,13.34,0.025,300.6
2020-05-28T04:52:03,42.805,6.029,0.019,0.018,0.0,101.0,103.0,101.0,13.3,1505.4,326.8,-0.7,1.8,2470.258,13.34,0.026,46.5
2020-05-28T04:55:03,42.805,6.029,0.01,0.019,0.02,101.0,103.0,100.0,13.3,1505.4,328.2,-0.7,1.8,2470.256,13.35,0.021,27.8
2020-05-28T04:58:03,42.805,6.029,0.007,0.009,0.006,100.0,105.0,100.0,13.4,1505.4,323.0,-0.7,1.8,2470.273,13.35,0.011,37.9
2020-05-28T05:04:03,42.805,6.029,0.026,0.02,0.029,101.0,105.0,99.0,13.4,1505.3,326.3,-0.8,1.8,2470.264,13.33,0.032,52.4
2020-05-28T05:07:03,42.805,6.029,0.026,0.002,0.026,101.0,105.0,101.0,13.4,1505.3,324.5,-0.7,1.9,2470.303,13.33,0.026,85.6
2020-05-28T05:10:03,42.805,6.029,0.047,0.011,-0.002,102.0,106.0,100.0,13.4,1505.4,324.4,-0.7,1.8,2470.275,13.34,0.048,76.8
2020-05-28T05:13:03,42.805,6.029,0.039,0.033,0.002,101.0,105.0,99.0,13.4,1505.4,324.2,-0.7,1.8,2470.272,13.34,0.051,49.8
2020-05-28T05:16:03,42.805,6.029,0.022,0.015,0.002,101.0,106.0,100.0,13.4,1505.4,326.7,-0.7,1.9,2470.302,13.34,0.026,55.7
2020-05-28T05:19:03,42.805,6.029,0.045,0.009,0.017,102.0,105.0,100.0,13.4,1505.4,323.8,-0.7,1.8,2470.252,13.34,0.045,78.7
2020-05-28T05:22:03,42.805,6.029,0.058,0.02,0.047,101.0,104.0,100.0,13.4,1505.4,325.4,-0.7,1.8,2470.263,13.34,0.061,71.0
2020-05-28T05:25:03,42.805,6.029,0.02,0.014,-0.024,101.0,104.0,100.0,13.3,1505.4,325.8,-0.7,1.8,2470.243,13.34,0.024,55.0
2020-05-28T05:28:03,42.805,6.029,0.017,0.001,-0.025,102.0,103.0,100.0,13.4,1505.4,324.6,-0.7,1.8,2470.259,13.35,0.017,86.6
2020-05-28T05:31:03,42.805,6.029,0.015,0.03,0.03,103.0,104.0,99.0,13.4,1505.4,324.6,-0.7,1.8,2470.22,13.35,0.033,26.6
2020-05-28T05:34:03,42.805,6.029,0.033,0.006,0.026,100.0,104.0,101.0,13.4,1505.4,325.9,-0.7,1.9,2470.286,13.35,0.033,79.7
2020-05-28T05:37:03,42.805,6.029,0.029,0.007,0.027,100.0,106.0,102.0,13.4,1505.4,324.1,-0.7,1.8,2470.271,13.35,0.029,76.4
2020-05-28T05:40:03,42.805,6.029,0.04,-0.008,0.0,102.0,106.0,100.0,13.4,1505.4,326.1,-0.7,1.8,2470.307,13.35,0.04,101.3
2020-05-28T05:43:03,42.805,6.029,0.034,0.017,0.019,102.0,104.0,98.0,13.4,1505.4,326.5,-0.7,1.8,2470.247,13.35,0.038,63.4
2020-05-28T05:46:03,42.805,6.029,0.037,0.002,0.023,101.0,104.0,100.0,13.4,1505.4,326.4,-0.7,1.8,2470.276,13.35,0.037,86.9
2020-05-28T05:49:03,42.805,6.029,0.034,0.015,0.036,103.0,105.0,99.0,13.4,1505.4,326.2,-0.7,1.8,2470.257,13.35,0.037,66.2
2020-05-28T05:52:03,42.805,6.029,0.04,0.008,0.005,101.0,106.0,101.0,13.3,1505.4,325.6,-0.7,1.8,2470.246,13.35,0.04,78.7
2020-05-28T05:55:03,42.805,6.029,0.028,0.008,0.015,104.0,104.0,100.0,13.3,1505.4,327.7,-0.7,1.9,2470.278,13.35,0.029,74.1
2020-05-28T05:58:03,42.805,6.029,0.025,-0.003,-0.014,102.0,106.0,99.0,13.4,1505.4,326.2,-0.7,1.8,2470.288,13.35,0.025,96.8
2020-05-28T06:04:03,42.805,6.029,0.005,0.017,0.016,102.0,105.0,100.0,13.4,1505.3,326.5,-0.7,1.9,2470.307,13.33,0.017,16.4
2020-05-28T06:07:03,42.805,6.029,0.025,0.0,0.011,103.0,105.0,99.0,13.4,1505.4,327.7,-0.7,1.8,2470.249,13.34,0.025,90.0
2020-05-28T06:10:03,42.805,6.029,0.024,-0.009,-0.004,101.0,107.0,102.0,13.3,1505.4,323.4,-0.7,1.8,2470.3,13.34,0.025,110.6
2020-05-28T06:13:03,42.805,6.029,0.01,-0.014,-0.034,102.0,107.0,101.0,13.3,1505.4,324.6,-0.7,1.8,2470.263,13.34,0.017,144.5
2020-05-28T06:16:03,42.805,6.029,0.019,0.021,0.015,102.0,105.0,102.0,13.4,1505.4,327.3,-0.7,1.8,2470.272,13.34,0.028,42.1
2020-05-28T06:19:03,42.805,6.029,0.035,0.002,0.03,101.0,105.0,100.0,13.4,1505.4,325.7,-0.7,1.9,2470.245,13.34,0.035,86.7
2020-05-28T06:22:03,42.805,6.029,0.033,0.005,0.048,102.0,106.0,101.0,13.4,1505.4,323.4,-0.8,1.8,2470.292,13.34,0.033,81.4
2020-05-28T06:25:03,42.805,6.029,0.048,0.005,0.04,103.0,105.0,100.0,13.4,1505.4,326.3,-0.7,1.8,2470.252,13.35,0.048,84.1
2020-05-28T06:28:03,42.805,6.029,0.06,0.013,0.021,102.0,104.0,100.0,13.4,1505.4,326.9,-0.7,1.8,2470.274,13.35,0.061,77.8
2020-05-28T06:31:03,42.805,6.029,0.017,0.003,0.011,102.0,107.0,102.0,13.3,1505.4,325.5,-0.7,1.8,2470.256,13.35,0.017,80.0
2020-05-28T06:34:03,42.805,6.029,0.055,0.002,0.024,102.0,105.0,99.0,13.4,1505.4,322.8,-0.7,1.9,2470.285,13.35,0.055,87.9
2020-05-28T06:37:03,42.805,6.029,0.048,0.024,0.045,102.0,105.0,100.0,13.4,1505.4,325.6,-0.7,1.8,2470.255,13.35,0.053,63.4
2020-05-28T06:40:03,42.805,6.029,0.054,-0.01,0.0,101.0,105.0,100.0,13.4,1505.4,328.1,-0.7,1.8,2470.251,13.35,0.054,100.5
2020-05-28T06:43:03,42.805,6.029,0.029,-0.003,-0.001,100.0,107.0,100.0,13.3,1505.4,326.6,-0.7,1.8,2470.229,13.35,0.029,95.9
2020-05-28T06:46:03,42.805,6.029,0.03,0.004,0.039,103.0,106.0,101.0,13.3,1505.4,327.5,-0.8,1.8,2470.246,13.35,0.03,82.4
2020-05-28T06:49:03,42.805,6.029,0.056,0.0,-0.004,101.0,106.0,100.0,13.3,1505.4,327.7,-0.7,1.8,2470.259,13.35,0.056,90.0
2020-05-28T06:52:03,42.805,6.029,0.045,-0.011,-0.005,102.0,106.0,99.0,13.4,1505.4,323.4,-0.7,1.8,2470.301,13.35,0.046,103.7
2020-05-28T06:55:03,42.805,6.029,0.041,0.009,-0.003,104.0,107.0,102.0,13.4,1505.4,325.9,-0.7,1.8,2470.297,13.35,0.041,77.6
2020-05-28T06:58:03,42.805,6.029,0.019,0.027,-0.016,101.0,106.0,100.0,13.4,1505.4,324.8,-0.7,1.8,2470.268,13.35,0.033,35.1
2020-05-28T07:04:03,42.805,6.029,0.028,0.008,0.018,102.0,106.0,101.0,13.4,1505.3,325.4,-0.7,1.8,2470.309,13.33,0.029,74.1
2020-05-28T07:07:03,42.805,6.029,0.03,-0.002,0.028,103.0,105.0,100.0,13.3,1505.3,326.2,-0.7,1.8,2470.29,13.33,0.03,93.8
2020-05-28T07:10:03,42.805,6.029,0.033,-0.002,-0.011,102.0,105.0,100.0,13.4,1505.4,327.8,-0.7,1.8,2470.309,13.34,0.033,93.5
2020-05-28T07:13:03,42.805,6.029,0.011,0.014,0.007,101.0,106.0,102.0,13.3,1505.4,326.3,-0.7,1.8,2470.277,13.34,0.017,38.2
2020-05-28T07:16:03,42.805,6.029,0.041,0.016,0.024,101.0,106.0,100.0,13.3,1505.4,326.9,-0.7,1.8,2470.265,13.34,0.044,68.7
2020-05-28T07:19:03,42.805,6.029,0.007,0.026,0.005,102.0,105.0,101.0,13.4,1505.4,325.7,-0.7,1.8,2470.268,13.34,0.026,15.1
2020-05-28T07:22:03,42.805,6.029,0.031,0.007,0.003,101.0,107.0,99.0,13.4,1505.4,326.1,-0.7,1.8,2470.306,13.35,0.031,77.3
2020-05-28T07:25:03,42.805,6.029,0.041,0.014,-0.01,103.0,105.0,100.0,13.4,1505.4,325.4,-0.7,1.8,2470.276,13.35,0.043,71.1
2020-05-28T07:28:03,42.805,6.029,0.038,0.0,0.046,101.0,107.0,102.0,13.4,1505.4,326.9,-0.7,1.9,2470.265,13.35,0.038,90.0
2020-05-28T07:31:03,42.805,6.029,0.01,-0.002,-0.018,102.0,104.0,101.0,13.4,1505.4,327.1,-0.7,1.8,2470.257,13.35,0.01,101.3
2020-05-28T07:34:03,42.805,6.029,0.028,0.018,0.055,102.0,105.0,101.0,13.4,1505.4,326.3,-0.7,1.8,2470.27,13.35,0.033,57.3
2020-05-28T07:37:03,42.805,6.029,0.046,0.017,0.038,102.0,106.0,100.0,13.4,1505.4,326.4,-0.7,1.8,2470.247,13.35,0.049,69.7
2020-05-28T07:40:03,42.805,6.029,0.023,0.005,0.004,102.0,106.0,99.0,13.4,1505.4,326.7,-0.7,1.9,2470.247,13.35,0.023,77.7
2020-05-28T07:43:03,42.805,6.029,0.029,0.009,0.041,102.0,105.0,101.0,13.3,1505.4,324.5,-0.7,1.9,2470.28,13.35,0.03,72.8
2020-05-28T07:46:03,42.805,6.029,0.032,0.014,-0.001,102.0,105.0,101.0,13.4,1505.4,324.2,-0.7,1.8,2470.25,13.35,0.034,66.4
2020-05-28T07:49:03,42.805,6.029,0.008,0.02,0.001,104.0,105.0,101.0,13.4,1505.4,323.0,-0.7,1.8,2470.234,13.35,0.021,21.8
2020-05-28T07:52:03,42.805,6.029,0.02,0.025,0.005,104.0,105.0,100.0,13.3,1505.4,325.0,-0.7,1.8,2470.281,13.35,0.032,38.7
2020-05-28T07:55:03,42.805,6.029,0.026,0.007,-0.005,102.0,104.0,101.0,13.4,1505.4,324.6,-0.7,1.8,2470.265,13.35,0.026,74.9
2020-05-28T07:58:03,42.805,6.029,0.04,-0.01,-0.002,102.0,105.0,101.0,13.4,1505.4,324.7,-0.7,1.8,2470.269,13.35,0.041,104.0
2020-05-28T08:04:03,42.805,6.029,0.039,0.035,0.016,101.0,106.0,101.0,13.4,1505.3,326.8,-0.7,1.8,2470.304,13.33,0.052,48.1
2020-05-28T08:07:03,42.805,6.029,0.036,-0.002,0.016,103.0,105.0,101.0,13.3,1505.3,328.2,-0.7,1.9,2470.308,13.33,0.036,93.2
2020-05-28T08:10:03,42.805,6.029,0.021,0.001,0.016,103.0,105.0,101.0,13.4,1505.4,323.5,-0.7,1.8,2470.275,13.34,0.021,87.3
2020-05-28T08:13:03,42.805,6.029,0.036,0.011,0.016,103.0,105.0,100.0,13.4,1505.4,324.2,-0.8,1.8,2470.264,13.34,0.037,73.0
2020-05-28T08:16:03,42.805,6.029,0.043,0.007,0.01,102.0,105.0,101.0,13.4,1505.4,324.1,-0.7,1.8,2470.284,13.34,0.043,80.8
2020-05-28T08:19:03,42.805,6.029,0.05,0.02,0.012,101.0,106.0,101.0,13.4,1505.4,326.6,-0.7,1.8,2470.273,13.34,0.053,68.2
2020-05-28T08:22:03,42.805,6.029,0.013,0.003,0.003,101.0,106.0,102.0,13.4,1505.4,326.8,-0.7,1.8,2470.314,13.34,0.013,77.0
2020-05-28T08:25:03,42.805,6.029,0.009,0.021,0.015,101.0,106.0,103.0,13.4,1505.4,323.7,-0.7,1.8,2470.296,13.34,0.022,23.2
2020-05-28T08:28:03,42.805,6.029,0.036,0.01,0.014,101.0,106.0,101.0,13.4,1505.4,326.3,-0.8,1.8,2470.267,13.35,0.037,74.5
2020-05-28T08:31:03,42.805,6.029,0.026,0.022,0.038,101.0,105.0,101.0,13.3,1505.4,323.2,-0.7,1.9,2470.281,13.35,0.034,49.8
2020-05-28T08:34:03,42.805,6.029,0.02,0.005,0.023,101.0,106.0,102.0,13.4,1505.4,325.8,-0.7,1.8,2470.293,13.35,0.02,76.0
2020-05-28T08:37:03,42.805,6.029,0.026,0.02,0.01,105.0,106.0,101.0,13.4,1505.4,326.5,-0.7,1.8,2470.276,13.35,0.032,52.4
2020-05-28T08:40:03,42.805,6.029,0.017,0.011,0.017,104.0,105.0,101.0,13.3,1505.4,324.2,-0.7,1.9,2470.273,13.35,0.02,57.1
2020-05-28T08:43:03,42.805,6.029,0.01,0.023,-0.007,103.0,108.0,100.0,13.4,1505.4,322.9,-0.7,1.8,2470.282,13.35,0.025,23.5
2020-05-28T08:46:03,42.805,6.029,0.024,-0.002,0.004,106.0,105.0,101.0,13.4,1505.4,327.1,-0.7,1.8,2470.292,13.35,0.024,94.8
2020-05-28T08:49:03,42.805,6.029,0.033,0.014,-0.011,103.0,105.0,101.0,13.4,1505.4,326.0,-0.7,1.9,2470.276,13.35,0.035,67.0
2020-05-28T08:52:03,42.805,6.029,0.036,0.002,-0.005,103.0,106.0,100.0,13.4,1505.4,327.2,-0.7,1.8,2470.269,13.35,0.036,86.8
2020-05-28T08:55:03,42.805,6.029,0.015,0.003,-0.005,103.0,107.0,100.0,13.3,1505.4,326.7,-0.7,1.8,2470.328,13.35,0.015,78.7
2020-05-28T08:58:03,42.805,6.029,0.029,0.01,0.04,103.0,106.0,103.0,13.4,1505.4,328.4,-0.7,1.8,2470.317,13.35,0.03,71.0
2020-05-28T09:04:03,42.805,6.029,0.022,-0.004,0.005,102.0,108.0,101.0,13.4,1505.3,328.6,-0.8,1.8,2470.317,13.33,0.022,100.3
2020-05-28T09:07:03,42.805,6.029,0.027,0.007,0.001,105.0,106.0,100.0,13.4,1505.4,327.9,-0.7,1.8,2470.281,13.34,0.027,75.5
2020-05-28T09:10:03,42.805,6.029,0.036,0.009,0.03,104.0,105.0,102.0,13.4,1505.4,328.0,-0.8,1.9,2470.302,13.34,0.037,76.0
2020-05-28T09:13:03,42.805,6.029,0.034,0.01,0.033,101.0,107.0,100.0,13.4,1505.4,327.9,-0.7,1.8,2470.319,13.34,0.035,73.6
2020-05-28T09:16:03,42.805,6.029,0.001,0.0,-0.015,102.0,107.0,100.0,13.4,1505.4,324.6,-0.7,1.8,2470.289,13.34,0.001,90.0
2020-05-28T09:19:03,42.805,6.029,0.021,0.018,-0.005,105.0,107.0,102.0,13.4,1505.4,324.9,-0.7,1.9,2470.276,13.34,0.027,49.4
2020-05-28T09:22:03,42.805,6.029,-0.006,0.021,-0.006,105.0,107.0,100.0,13.3,1505.4,324.8,-0.7,1.9,2470.305,13.35,0.021,344.1
2020-05-28T09:25:03,42.805,6.029,-0.01,0.013,-0.039,102.0,107.0,101.0,13.4,1505.4,324.3,-0.7,1.8,2470.305,13.35,0.016,322.4
2020-05-28T09:28:03,42.805,6.029,0.024,0.022,-0.012,103.0,110.0,100.0,13.4,1505.4,325.2,-0.7,1.8,2470.296,13.35,0.032,47.5
2020-05-28T09:31:03,42.805,6.029,0.023,0.022,-0.003,104.0,108.0,102.0,13.4,1505.4,327.0,-0.7,1.8,2470.319,13.35,0.031,46.3
2020-05-28T09:34:03,42.805,6.029,0.0,0.004,0.01,104.0,106.0,102.0,13.4,1505.4,323.3,-0.7,1.8,2470.304,13.35,0.004,0.0
2020-05-28T09:37:03,42.805,6.029,-0.019,0.019,-0.007,103.0,105.0,101.0,13.3,1505.4,323.5,-0.7,1.9,2470.298,13.35,0.026,315.0
2020-05-28T09:40:03,42.805,6.029,-0.003,0.004,-0.032,103.0,106.0,100.0,13.3,1505.4,327.9,-0.7,1.8,2470.315,13.35,0.005,323.1
2020-05-28T09:43:03,42.805,6.029,-0.029,0.001,-0.028,103.0,106.0,102.0,13.4,1505.4,324.9,-0.7,1.8,2470.261,13.35,0.029,272.0
2020-05-28T09:46:03,42.805,6.029,-0.008,-0.015,-0.047,102.0,105.0,106.0,13.4,1505.4,324.5,-0.7,1.8,2470.306,13.35,0.017,208.1
2020-05-28T09:49:03,42.805,6.029,-0.015,0.007,-0.039,106.0,105.0,100.0,13.4,1505.4,326.4,-0.7,1.8,2470.295,13.35,0.016,295.0
2020-05-28T09:52:03,42.805,6.029,-0.022,0.002,-0.061,102.0,106.0,100.0,13.4,1505.4,323.5,-0.7,1.9,2470.29,13.35,0.022,275.2
2020-05-28T09:58:03,42.805,6.029,-0.022,0.021,-0.057,102.0,105.0,102.0,13.4,1505.3,326.0,-0.7,1.9,2470.341,13.33,0.03,313.7
2020-05-28T10:04:03,42.805,6.029,0.008,-0.006,-0.031,104.0,106.0,101.0,13.4,1505.3,326.3,-0.7,1.8,2470.337,13.32,0.01,126.9
2020-05-28T10:07:03,42.805,6.029,-0.035,0.009,-0.066,106.0,105.0,100.0,13.3,1505.3,326.5,-0.7,1.8,2470.337,13.33,0.036,284.4
2020-05-28T10:10:03,42.805,6.029,-0.018,0.008,-0.033,103.0,105.0,102.0,13.4,1505.4,323.0,-0.7,1.8,2470.307,13.34,0.019,294.0
2020-05-28T10:13:03,42.805,6.029,-0.016,-0.015,-0.055,103.0,108.0,100.0,13.4,1505.4,326.0,-0.7,1.8,2470.349,13.34,0.021,226.9